Regional Weather Roundup
Issued by NWS

Home | Current Version | Previous Version | Text Only | Print | Product List | Glossary On
Versions: 1 2 3 4 5 6 7 8 9 10 11 12 13 14 15 16 17 18 19 20 21 22 23 24 25 26 27 28 29 30 31 32 33 34 35 36 37 38 39 40 41 42 43 44 45 46 47 48 49 50
000
ASCA42 TJSJ 220110
RWRPR
PUERTO RICO/U.S. VIRGIN ISLANDS HOURLY WEATHER ROUNDUP
NATIONAL WEATHER SERVICE SAN JUAN PR
900 PM AST TUE FEB 21 2017

PRZ001>002-007>008-010-220200-
PUERTO RICO

CITY           SKY/WX    TMP DP  RH WIND       PRES   REMARKS
SAN JUAN LMM   PTCLDY    79  64  61 NW13      29.89R
AGUADILLA      CLOUDY    75  64  69 NE9       29.91R
CEIBA          MOCLDY    75  64  69 NW5       29.90S
$$

VIZ001>002-220200-
U.S. VIRGIN ISLANDS

CITY           SKY/WX    TMP DP  RH WIND       PRES   REMARKS
CHARLOTTE AMA  PTCLDY    75  64  69 N13G20    29.87R
CHRISTIANSTED  CLEAR     75  64  69 N6        29.87S
$$

HOURLY WEATHER ROUNDUP FOR THE NEWS MEDIA

CITY           SKY/WX    TMP DP  RH WIND       PRES   REMARKS
ORLANDO        CLOUDY    71  60  68 SE9       29.98S
NEW YORK       MOCLDY    42  36  79 S10       30.22S
NEWARK         MOCLDY    41  31  67 S8        30.20R
CHICAGO        MOCLDY    58  50  75 SW3       29.90R
HARTFORD       MOCLDY    38  28  67 S8        30.20F WCI  32
BOSTON         CLOUDY    39  27  62 SW10      30.19F WCI  32
DALLAS         PTCLDY    68  43  40 NW6       29.91R
PHILADELPHIA   CLOUDY    45  33  63 SE5       30.20S
LOS ANGELES    CLOUDY    60  57  89 W13       30.23F
WASHINGTON DC  CLOUDY    49  34  56 S7        30.14F


USA.gov is the U.S. government's official web portal to all federal, state and local government web resources and services.